Wind_Speed
10 9 8 7 5 5 5 2 5 5 8 14 13 14 15 20 17 13 15 17 18 22 24 23 23 19 17 17 16 16 17 18 19 19 19 20 20 19 19 20 21 22 23 23 22 23 24 24 26
12 10 8 6 5 7 4 2 3 4 8 9 10 15 18 21 21 17 20 20 19 22 23 23 22 19 17 16 17 18 21 22 23 23 24 25 25 24 23 22 23 24 24 24 24 24 24 25 26
10 9 9 5 8 9 4 3 8 9 9 11 14 15 18 19 17 16 20 19 20 19 22 21 19 16 16 16 17 19 22 25 26 27 26 25 25 25 25 25 25 24 24 25 26 26 25 26 28
9 9 8 11 9 8 8 3 4 5 3 16 18 16 20 16 16 17 20 17 22 18 22 20 18 17 17 18 19 21 23 26 28 31 29 29 27 24 24 23 23 24 24 25 26 27 26 25 26
10 9 12 13 12 7 9 9 5 8 12 11 16 17 15 15 21 20 18 17 19 19 22 22 20 18 17 19 21 24 26 27 30 34 32 30 25 24 23 23 22 22 23 23 26 26 26 26 25
12 11 12 15 16 14 12 9 11 6 10 9 13 15 15 17 22 23 18 17 20 20 20 22 19 17 17 19 21 25 27 29 31 34 34 29 25 23 23 22 21 21 21 21 23 25 25 26 27
15 13 16 18 17 14 15 7 12 10 7 8 13 17 19 16 20 21 19 20 20 20 21 21 20 18 17 19 22 24 27 30 33 36 37 30 27 24 21 18 17 17 18 19 20 22 24 26 28
18 17 20 21 20 20 20 11 15 17 13 12 13 16 19 17 21 21 23 20 20 19 20 20 19 18 19 19 22 24 27 30 32 36 36 30 26 24 21 18 17 17 17 19 20 21 22 25 28
22 24 26 25 22 19 19 20 16 18 19 16 16 15 20 22 26 24 21 18 24 19 14 18 20 18 20 20 22 25 28 31 33 37 36 28 22 21 21 21 20 20 19 18 20 21 20 21 27
33 36 29 31 25 24 25 27 25 26 21 23 22 16 19 22 23 25 22 23 25 20 15 19 21 23 23 23 23 26 29 33 35 38 35 27 23 22 22 23 22 21 19 18 19 20 19 19 20
39 45 32 29 24 26 28 27 33 32 33 29 26 21 21 22 23 26 26 27 24 21 21 20 23 21 24 25 26 28 30 33 36 39 33 27 23 21 23 23 22 20 20 17 18 20 21 20 17
47 45 35 27 27 33 34 38 34 33 36 34 29 23 23 23 26 27 28 27 23 23 21 22 25 22 23 24 26 29 31 34 36 38 31 24 21 20 20 22 25 22 18 17 18 19 20 19 17
47 39 37 33 34 31 35 40 40 40 36 37 33 26 22 26 26 23 26 28 27 24 20 24 26 23 23 24 26 29 33 35 36 35 28 25 23 21 21 23 27 22 17 15 16 16 17 19 19
44 39 37 34 35 32 38 41 43 44 43 45 37 28 25 26 26 25 28 27 29 24 26 25 28 25 24 25 27 29 35 35 35 31 27 26 23 23 24 26 25 21 17 16 15 15 18 20 20
39 39 39 39 33 38 37 50 49 48 46 41 34 29 29 28 28 29 27 28 29 28 29 28 29 26 25 27 27 30 35 34 32 27 25 24 24 26 25 23 21 19 17 16 16 18 18 20 21
32 36 38 36 32 36 39 52 51 44 37 33 33 33 28 28 30 31 31 32 24 26 30 30 30 27 27 28 28 32 32 32 28 26 27 27 27 25 22 23 18 16 14 15 17 18 16 19 20
36 40 39 38 27 38 41 47 38 32 31 32 31 29 25 25 26 27 26 29 27 28 32 32 31 29 28 28 29 32 31 28 26 27 29 28 24 20 18 19 15 12 13 14 15 14 16 18 19
37 36 40 37 37 40 39 41 41 28 25 23 25 19 21 22 19 21 23 26 27 28 31 35 34 31 29 28 30 30 29 25 24 26 26 24 17 14 16 17 12 12 13 13 13 12 15 18 21
41 40 43 39 40 37 41 37 41 30 27 21 16 16 18 21 21 19 19 23 29 28 25 30 36 31 29 28 30 27 26 23 24 24 23 18 16 15 13 15 11 10 11 12 11 13 16 20 21
44 46 49 44 44 37 39 39 31 27 22 19 14 16 19 21 23 27 24 26 30 27 23 26 29 29 27 28 28 26 24 21 24 23 21 17 14 14 13 11 10 9 10 10 10 13 16 21 19
47 52 45 47 30 24 33 41 37 23 22 18 15 10 9 15 18 20 24 26 22 20 21 23 24 25 25 28 24 24 21 21 23 22 19 13 12 13 10 9 8 8 8 8 10 14 18 21 20
54 50 45 44 36 19 8 12 34 24 21 21 12 12 13 18 19 22 15 10 6 8 13 18 21 21 25 23 23 20 19 20 20 20 15 13 11 8 4 6 5 5 6 7 13 19 19 18 22
54 43 44 41 38 31 29 17 28 29 22 24 17 17 15 14 13 11 9 9 8 6 11 17 17 21 21 21 20 17 17 18 16 14 13 12 8 5 3 4 4 5 5 10 18 21 14 11 15
35 16 22 26 23 13 28 20 29 31 28 24 19 11 8 8 6 10 9 11 7 8 12 14 17 18 19 20 15 15 15 15 14 14 12 10 5 2 3 5 5 8 8 15 19 16 10 9 13
30 24 4 5 6 5 21 16 35 12 9 21 17 13 11 10 12 9 8 7 7 7 10 15 15 16 17 14 12 12 12 12 13 14 9 6 2 3 4 7 7 11 12 16 16 14 10 14 17
38 37 16 8 4 4 18 14 17 15 13 10 10 13 12 11 13 8 3 5 5 8 12 13 13 13 13 9 10 10 10 9 13 11 2 3 1 4 5 8 8 12 12 13 15 13 12 14 17
37 38 32 11 8 2 11 11 22 21 13 10 13 11 14 13 14 5 4 6 6 10 13 10 10 10 8 7 8 8 6 7 8 6 2 5 3 4 7 9 9 12 10 12 13 12 9 14 16
38 35 28 24 6 4 6 9 13 15 17 5 7 10 10 16 10 4 6 7 8 10 8 6 8 7 6 6 6 5 3 5 6 2 3 2 5 7 9 11 10 11 10 11 10 10 12 12 14
33 35 21 26 13 5 1 8 15 14 8 9 4 6 11 13 5 5 6 9 9 8 6 5 6 6 5 5 5 3 2 4 6 2 3 7 8 10 11 12 12 11 10 10 10 12 13 12 14
42 42 43 24 20 16 3 5 19 16 13 14 12 9 14 10 6 5 7 9 9 7 6 4 4 5 4 4 2 2 1 4 5 6 5 9 9 9 11 14 13 11 9 9 10 12 13 12 15
Wind_Direction
187 190 203 216 226 220 223 186 34 15 6 345 315 296 292 295 300 304 320 316 325 329 332 344 347 348 347 342 346 344 341 336 332 328 321 311 302 294 286 279 273 268 268 266 259 257 251 247 245
195 202 195 205 231 217 181 163 337 264 303 325 311 298 301 295 302 310 318 317 323 326 340 349 349 350 348 352 358 0 358 351 344 335 325 316 309 302 293 284 278 273 270 267 266 259 255 252 246
200 210 220 232 226 225 200 248 318 313 300 327 302 296 297 306 306 311 313 311 320 333 345 348 349 352 353 357 359 355 354 352 347 340 330 321 311 304 296 291 282 276 273 270 268 266 257 251 249
208 219 238 245 246 233 241 325 357 360 313 320 323 304 299 305 304 305 306 309 318 326 342 347 346 344 344 343 346 346 345 344 344 342 335 325 315 305 295 287 280 276 271 268 268 266 262 256 249
212 229 245 259 263 272 279 284 297 307 339 325 328 311 298 302 313 309 308 314 323 321 333 341 344 333 332 335 340 342 342 339 340 339 336 328 320 313 300 290 286 276 271 267 265 263 264 260 253
222 227 248 262 280 294 304 263 243 304 336 338 344 320 318 310 307 305 298 316 312 309 320 335 336 332 320 326 334 338 336 336 335 335 334 327 316 307 300 291 286 279 270 265 264 264 259 256 253
235 238 251 264 273 292 305 267 239 259 295 304 331 329 326 312 309 306 292 306 306 308 317 332 332 331 323 320 327 331 331 333 332 333 332 324 318 312 305 296 288 283 280 273 261 256 257 255 250
240 241 249 255 266 284 294 296 244 261 266 285 296 312 315 319 311 300 290 301 311 311 330 351 338 323 324 319 322 323 325 329 330 329 331 324 316 311 305 299 289 284 279 276 273 264 252 244 247
242 234 243 263 270 276 291 293 268 271 269 268 279 300 313 311 305 302 289 302 316 309 341 347 343 327 321 319 316 318 321 326 326 328 330 324 314 307 298 295 289 288 285 280 275 269 260 251 240
250 239 249 277 269 282 288 283 278 278 268 267 263 274 298 302 306 301 292 305 310 308 325 343 333 325 320 315 314 317 320 324 326 328 327 320 313 307 301 296 289 286 277 270 266 258 254 257 242
257 251 263 267 269 279 278 271 281 280 276 275 279 277 286 282 296 300 296 297 305 309 321 327 321 318 319 316 316 316 320 321 323 324 324 317 312 309 303 296 291 294 283 275 271 256 246 249 247
248 256 260 262 269 275 278 279 270 272 275 274 270 276 283 285 296 292 300 295 295 308 323 312 313 308 312 314 316 315 316 318 322 322 319 310 303 306 305 303 299 298 286 282 271 255 245 241 241
251 257 260 262 273 273 275 275 278 273 274 269 264 266 275 285 297 292 301 296 291 307 307 309 304 300 301 308 314 313 314 317 320 319 313 305 300 299 302 308 304 291 278 277 261 252 246 239 233
255 258 260 262 270 273 273 278 277 280 290 273 265 269 268 284 291 296 293 297 287 298 296 295 293 292 298 305 305 308 314 317 317 316 311 303 297 296 300 304 298 283 270 265 256 256 248 233 225
250 256 260 262 269 274 282 278 278 298 289 285 268 275 268 279 287 283 291 287 288 295 290 290 286 287 299 298 298 308 316 314 316 315 313 304 294 295 301 306 298 273 262 252 257 263 244 226 221
250 256 261 264 270 281 285 283 295 293 292 280 271 276 272 275 273 275 276 277 283 287 282 281 282 288 292 292 297 309 311 312 312 312 311 302 294 295 297 308 292 262 247 245 258 259 233 217 211
246 253 259 273 286 287 287 289 298 302 290 281 274 278 274 269 273 280 275 264 272 285 279 274 280 283 283 288 300 309 307 308 310 310 310 302 297 295 292 305 285 252 240 247 262 249 225 212 202
233 250 266 275 286 281 286 284 294 296 289 280 267 266 276 274 268 260 264 262 271 278 279 269 272 276 279 288 302 305 305 302 307 310 315 312 295 289 293 305 274 246 245 259 261 237 214 200 195
245 257 263 273 270 272 287 285 293 288 288 261 262 281 272 266 259 261 272 271 266 268 272 285 270 272 275 291 303 301 301 299 307 312 315 312 295 291 288 299 261 246 255 263 251 213 199 190 193
243 250 253 265 267 272 284 284 287 281 268 251 272 281 262 260 267 268 268 280 278 273 260 269 266 268 277 295 298 298 298 297 304 317 318 315 297 283 284 270 250 251 263 251 227 200 191 189 194
236 240 247 258 264 257 278 280 292 274 261 257 266 260 275 278 275 275 271 277 277 269 262 262 264 266 283 295 293 297 296 295 307 318 316 318 308 301 283 225 233 239 247 231 197 186 186 190 199
234 238 246 254 260 269 285 289 284 273 250 240 240 241 278 295 283 281 292 276 254 238 253 260 262 275 289 288 292 297 293 295 310 320 320 322 315 310 245 205 210 244 222 208 174 177 183 201 203
237 239 246 253 259 271 272 272 280 284 260 229 243 258 284 281 274 286 274 269 249 259 268 261 270 283 286 289 295 291 288 300 313 322 326 326 310 279 217 189 185 189 172 165 165 168 182 199 180
236 230 239 248 256 251 260 251 277 272 251 237 240 263 289 257 271 265 259 268 252 270 268 269 277 283 288 289 290 289 295 305 311 315 328 330 306 210 162 167 175 169 160 157 160 164 166 170 163
219 208 189 246 240 230 266 245 248 257 254 228 238 246 280 266 264 237 248 247 257 263 263 271 277 285 284 286 284 293 305 311 317 321 328 333 337 187 156 157 169 161 153 167 175 177 164 166 166
199 198 176 188 206 232 247 220 241 262 231 241 233 263 276 256 236 234 216 240 232 248 265 272 283 283 283 282 283 303 317 319 340 331 15 346 17 151 142 157 156 160 164 176 184 187 180 172 173
201 208 215 224 234 207 233 245 238 237 214 266 254 272 268 233 219 205 222 219 232 253 275 274 278 282 269 283 293 312 319 340 354 34 19 4 108 124 133 144 148 156 160 169 173 185 181 170 172
217 207 193 214 193 225 266 243 227 228 233 245 230 242 227 196 196 201 226 224 226 275 267 267 279 264 262 285 302 315 303 11 5 311 10 90 108 133 135 143 141 147 148 150 157 164 166 173 184
193 196 199 203 217 168 202 249 215 213 190 201 212 277 194 192 169 218 225 222 240 265 237 265 265 241 247 288 311 326 280 356 4 41 30 114 105 129 136 137 141 151 155 159 160 158 167 174 181
207 205 204 201 195 214 179 259 198 203 212 233 259 254 193 176 174 216 230 229 265 227 215 254 261 225 243 301 334 2 312 36 35 74 106 102 121 133 140 143 146 153 155 158 159 162 165 166 164
Height
3169 3170 3170 3172 3177 3172 3170 3171 3171 3171 3172 3172 3172 3172 3172 3171 3171 3174 3169 3167 3164 3162 3160 3157 3154 3152 3151 3149 3147 3146 3145 3143 3142 3140 3139 3139 3138 3138 3137 3137 3136 3136 3137 3136 3137 3138 3141 3142 3145
3169 3169 3170 3170 3172 3170 3169 3169 3169 3169 3169 3168 3169 3170 3169 3168 3168 3166 3165 3164 3163 3160 3157 3154 3152 3150 3149 3147 3146 3144 3142 3140 3138 3136 3135 3133 3132 3132 3131 3131 3131 3131 3131 3131 3131 3133 3134 3136 3139
3168 3169 3170 3168 3166 3167 3168 3168 3169 3168 3168 3167 3166 3168 3167 3166 3165 3164 3163 3162 3161 3159 3156 3153 3150 3149 3148 3146 3144 3142 3140 3138 3136 3134 3131 3129 3126 3125 3125 3124 3125 3125 3125 3125 3125 3126 3129 3130 3132
3166 3167 3168 3166 3164 3165 3166 3167 3166 3165 3165 3165 3165 3165 3164 3164 3163 3162 3160 3160 3158 3156 3153 3150 3148 3147 3146 3144 3142 3140 3138 3136 3135 3132 3128 3125 3122 3121 3119 3119 3120 3119 3120 3120 3120 3121 3122 3124 3126
3165 3165 3165 3162 3162 3164 3165 3165 3164 3164 3162 3162 3162 3162 3161 3162 3161 3159 3158 3157 3155 3153 3151 3149 3147 3145 3144 3142 3139 3137 3135 3133 3131 3128 3125 3121 3118 3117 3117 3114 3114 3114 3114 3114 3115 3116 3117 3118 3120
3163 3163 3162 3160 3159 3161 3162 3161 3162 3163 3162 3160 3159 3160 3160 3160 3159 3158 3156 3155 3153 3152 3150 3148 3145 3144 3142 3140 3138 3135 3133 3131 3128 3125 3121 3117 3115 3114 3112 3110 3108 3108 3109 3109 3109 3110 3111 3113 3114
3161 3160 3159 3159 3157 3158 3159 3160 3159 3160 3160 3159 3158 3157 3158 3157 3156 3155 3153 3151 3150 3149 3147 3145 3143 3141 3139 3138 3136 3133 3131 3128 3125 3121 3116 3112 3109 3107 3106 3105 3104 3103 3103 3103 3104 3105 3106 3107 3108
3157 3158 3156 3155 3156 3157 3156 3157 3157 3155 3157 3156 3155 3154 3154 3154 3153 3151 3150 3149 3147 3145 3144 3141 3139 3138 3137 3135 3133 3131 3128 3125 3121 3117 3113 3108 3104 3102 3101 3101 3100 3100 3099 3098 3098 3099 3101 3102 3103
3153 3153 3151 3150 3153 3154 3154 3154 3154 3153 3152 3152 3151 3150 3150 3149 3149 3147 3146 3145 3143 3141 3140 3137 3136 3135 3132 3130 3128 3126 3124 3120 3116 3112 3107 3104 3101 3100 3098 3097 3096 3095 3094 3093 3092 3093 3095 3096 3097
3148 3145 3143 3147 3149 3149 3149 3148 3149 3148 3148 3147 3146 3145 3144 3142 3142 3142 3141 3140 3139 3137 3136 3134 3133 3131 3129 3127 3124 3121 3118 3114 3110 3106 3103 3100 3097 3095 3093 3091 3091 3090 3089 3089 3088 3088 3089 3089 3091
3139 3133 3141 3144 3146 3142 3143 3143 3142 3141 3142 3143 3141 3140 3138 3136 3135 3137 3136 3136 3134 3133 3132 3130 3129 3128 3126 3123 3120 3117 3113 3109 3106 3102 3098 3095 3093 3090 3088 3086 3086 3084 3083 3082 3082 3084 3084 3085 3087
3129 3130 3137 3139 3141 3137 3137 3135 3135 3137 3135 3136 3136 3135 3133 3132 3130 3131 3131 3131 3130 3129 3128 3127 3125 3123 3121 3119 3116 3113 3110 3106 3102 3097 3094 3091 3089 3086 3084 3082 3079 3077 3077 3077 3077 3079 3080 3081 3083
3122 3128 3129 3132 3132 3132 3130 3127 3128 3128 3131 3128 3128 3128 3127 3126 3125 3125 3126 3126 3125 3124 3124 3122 3120 3119 3117 3114 3111 3109 3106 3102 3098 3093 3089 3087 3085 3083 3080 3077 3074 3072 3073 3073 3074 3075 3076 3077 3079
3120 3121 3122 3124 3126 3125 3123 3121 3121 3122 3123 3119 3120 3121 3121 3119 3119 3120 3121 3121 3120 3120 3119 3118 3116 3115 3112 3109 3107 3105 3102 3097 3094 3089 3086 3083 3081 3079 3077 3074 3070 3068 3067 3069 3070 3071 3073 3074 3076
3114 3112 3114 3117 3120 3116 3120 3109 3112 3115 3115 3112 3112 3114 3114 3113 3113 3113 3115 3115 3115 3115 3114 3113 3111 3110 3107 3105 3104 3101 3096 3093 3088 3083 3081 3078 3076 3074 3071 3068 3065 3063 3064 3065 3066 3067 3068 3070 3072
3107 3105 3106 3109 3115 3114 3113 3095 3106 3108 3106 3105 3105 3107 3106 3106 3106 3107 3108 3109 3109 3108 3107 3107 3106 3105 3103 3101 3100 3096 3093 3090 3084 3080 3077 3073 3070 3068 3066 3063 3060 3059 3061 3062 3063 3063 3064 3066 3069
3097 3095 3098 3100 3112 3108 3107 3095 3098 3099 3099 3098 3098 3098 3098 3099 3100 3100 3100 3101 3102 3103 3102 3101 3101 3100 3099 3097 3095 3092 3090 3085 3080 3077 3073 3068 3065 3063 3061 3059 3057 3057 3058 3059 3059 3059 3060 3063 3067
3087 3092 3093 3095 3105 3099 3096 3091 3091 3092 3092 3091 3092 3092 3092 3093 3094 3094 3094 3094 3095 3096 3096 3096 3096 3095 3094 3093 3091 3089 3086 3081 3078 3074 3069 3063 3061 3059 3057 3055 3054 3055 3055 3055 3055 3055 3058 3061 3066
3086 3089 3087 3093 3095 3093 3089 3087 3086 3087 3085 3087 3087 3087 3087 3089 3089 3089 3089 3088 3088 3089 3090 3090 3090 3090 3090 3089 3087 3085 3081 3077 3074 3069 3065 3060 3057 3055 3054 3052 3052 3052 3052 3052 3052 3053 3056 3060 3064
3080 3081 3080 3086 3087 3088 3085 3082 3081 3080 3080 3083 3083 3082 3084 3085 3085 3084 3083 3083 3081 3083 3084 3084 3085 3086 3087 3085 3083 3081 3076 3073 3069 3065 3062 3057 3054 3053 3051 3049 3049 3049 3050 3049 3051 3053 3056 3061 3064
3068 3069 3077 3079 3082 3081 3081 3075 3077 3076 3076 3078 3079 3079 3079 3079 3079 3078 3078 3077 3076 3077 3080 3081 3082 3082 3082 3081 3079 3076 3072 3069 3065 3062 3058 3053 3051 3049 3047 3047 3047 3047 3047 3048 3050 3053 3057 3061 3065
3058 3065 3073 3076 3078 3078 3078 3070 3072 3070 3071 3073 3074 3075 3076 3075 3074 3074 3073 3073 3073 3074 3076 3077 3079 3079 3079 3077 3074 3071 3069 3066 3062 3059 3054 3051 3048 3046 3045 3045 3046 3046 3046 3047 3050 3053 3059 3062 3066
3050 3063 3068 3073 3072 3076 3074 3077 3060 3067 3067 3068 3071 3072 3072 3070 3069 3070 3070 3070 3070 3072 3073 3075 3076 3076 3075 3073 3070 3068 3065 3063 3060 3056 3052 3049 3046 3045 3044 3044 3045 3046 3046 3048 3051 3055 3060 3062 3065
3055 3062 3067 3070 3071 3066 3069 3075 3052 3058 3060 3064 3067 3068 3068 3066 3067 3068 3068 3068 3069 3070 3071 3072 3074 3073 3071 3068 3067 3065 3062 3060 3057 3054 3051 3048 3045 3045 3045 3044 3045 3046 3047 3051 3054 3058 3061 3063 3066
3050 3057 3064 3068 3065 3059 3062 3064 3046 3053 3053 3059 3063 3064 3063 3064 3065 3065 3066 3066 3067 3068 3069 3070 3070 3069 3067 3065 3064 3062 3060 3058 3054 3051 3049 3046 3045 3045 3045 3045 3046 3047 3050 3053 3056 3059 3063 3065 3069
3036 3045 3047 3060 3058 3052 3051 3043 3042 3048 3053 3055 3058 3058 3059 3061 3062 3063 3063 3064 3064 3066 3067 3067 3067 3065 3063 3063 3062 3060 3058 3056 3053 3049 3048 3047 3045 3045 3045 3046 3047 3049 3052 3054 3057 3060 3063 3066 3069
3033 3034 3044 3046 3046 3048 3040 3037 3040 3045 3049 3052 3053 3053 3055 3057 3059 3061 3061 3062 3062 3064 3064 3064 3064 3062 3061 3061 3060 3058 3057 3055 3053 3050 3048 3047 3046 3046 3046 3048 3049 3051 3054 3056 3059 3062 3065 3068 3071
3021 3032 3039 3042 3044 3046 3035 3033 3034 3037 3044 3048 3048 3050 3051 3054 3057 3058 3059 3060 3061 3062 3062 3062 3061 3060 3059 3059 3058 3057 3057 3055 3053 3051 3049 3047 3046 3047 3048 3050 3052 3054 3056 3058 3061 3064 3067 3070 3072
3016 3019 3025 3032 3034 3037 3039 3030 3030 3035 3040 3044 3046 3048 3050 3053 3055 3056 3057 3058 3059 3060 3060 3060 3059 3059 3058 3058 3057 3056 3056 3054 3052 3051 3049 3048 3048 3048 3050 3052 3054 3056 3057 3060 3062 3064 3067 3070 3073
3007 3008 3012 3017 3021 3029 3030 3029 3029 3034 3038 3041 3045 3047 3050 3052 3054 3055 3056 3057 3058 3058 3059 3059 3058 3058 3057 3057 3057 3056 3056 3055 3053 3052 3050 3050 3050 3050 3052 3054 3056 3057 3059 3061 3062 3065 3068 3071 3074